FW5830 Weather Reports


Display with metric or nautical units.
time (UTC)temp
F
wind
direction
speed
MPH
gust
MPH
rain 1hr
in
rain 24hr
in
rain mn
in
humidity
%
barometer
mb
20260505021549 51 141 3.0 7.0 0.00 0.01 0.01 69 1010.7
20260505020056 50 0 0.0 0.0 0.00 0.01 0.01 68 1010.4
20260505014549 51 0 0.0 0.0 0.00 0.01 0.01 66 1010.4
20260505013051 51 0 0.0 1.0 0.00 0.01 0.01 66 1010.1
20260505011553 51 0 0.0 1.0 0.01 0.01 0.01 66 1010.2
20260505010051 51 319 0.0 1.0 0.01 0.01 0.01 69 1010.0
20260505004551 51 319 1.0 3.0 0.01 0.01 0.01 68 1010.1
20260505003051 52 324 3.0 7.0 0.01 0.01 0.01 64 1010.4
20260505001553 56 333 3.0 7.0 0.00 0.00 0.00 51 1010.7
20260505000047 56 111 3.0 12.0 0.00 0.00 0.00 45 1010.0
20260504234550 56 101 6.0 11.0 0.00 0.00 0.00 45 1009.9
20260504233050 56 129 9.0 14.0 0.00 0.00 0.00 45 1009.5
20260504231550 57 103 6.0 16.0 0.00 0.00 0.00 44 1009.5
20260504230047 57 151 16.0 26.0 0.00 0.00 0.00 44 1009.3
20260504224551 59 119 11.0 18.0 0.00 0.00 0.00 39 1009.0
20260504223045 58 94 11.0 21.0 0.00 0.00 0.00 42 1009.4
20260504221551 58 143 12.0 22.0 0.00 0.00 0.00 39 1009.3
20260504220110 59 89 13.0 25.0 0.00 0.00 0.00 37 1008.9
20260504214554 61 189 16.0 26.0 0.00 0.00 0.00 32 1008.5
20260504213053 65 179 3.0 8.0 0.00 0.00 0.00 27 1007.8
20260504211541 66 217 1.0 5.0 0.00 0.00 0.00 26 1008.0
20260504210041 69 224 1.0 4.0 0.00 0.00 0.00 24 1008.4
20260504204547 67 168 1.0 4.0 0.00 0.00 0.00 27 1008.5
20260504203054 65 113 5.0 13.0 0.00 0.00 0.00 29 1009.1
20260504201554 61 107 6.0 11.0 0.00 0.00 0.00 33 1009.3
20260504200054 60 114 4.0 10.0 0.00 0.00 0.00 37 1009.7
20260504194549 61 218 2.0 6.0 0.00 0.00 0.00 36 1009.3
20260504193048 61 212 1.0 6.0 0.00 0.00 0.00 33 1009.3
20260504191557 62 301 1.0 8.0 0.00 0.00 0.00 32 1010.0
20260504190059 62 312 3.0 9.0 0.00 0.00 0.00 29 1009.7
20260504184611 65 315 1.0 4.0 0.00 0.00 0.00 23 1008.8
20260504183052 65 197 3.0 10.0 0.00 0.00 0.00 22 1008.6
20260504181550 66 164 5.0 10.0 0.00 0.00 0.00 22 1008.5
20260504180054 68 212 0.0 6.0 0.00 0.00 0.00 23 1008.4
20260504174552 67 202 4.0 10.0 0.00 0.00 0.00 23 1008.5
20260504173049 67 115 2.0 12.0 0.00 0.00 0.00 21 1008.9
20260504171552 66 123 3.0 11.0 0.00 0.00 0.00 23 1009.2
20260504081547 53 96 1.0 4.0 0.00 0.00 0.00 31 1011.1
20260504044553 60 62 2.0 4.0 0.00 0.00 0.00 26 1012.0
20260504043052 60 53 2.0 5.0 0.00 0.00 0.00 27 1012.0
20260504041546 60 49 3.0 6.0 0.00 0.00 0.00 26 1012.2
20260504034558 60 93 1.0 3.0 0.00 0.00 0.00 27 1012.4
20260504033124 61 0 0.0 2.0 0.00 0.00 0.00 26 1012.6
20260504031549 61 0 1.0 3.0 0.00 0.00 0.00 26 1012.5
20260504030050 61 0 0.0 3.0 0.00 0.00 0.00 26 1012.4
20260504024547 61 326 1.0 5.0 0.00 0.00 0.00 27 1012.4
20260504023100 61 312 2.0 2.0 0.00 0.00 0.00 27 1012.2